Lexington Weather

Lexington, Massachusetts, USA

39°F
1/28/2023 9:11pm 
  • Lexington Conditions: Clear
  • Temperature: 38.8°F / 3.8°CColder 0.8°F than last hour.
  • Dew Point: 27.3°FIncreased 0.5°Fsince last hour.
  • Relative Humidity: 63%Increased 3.0% since last hour.
  • Wind: Calm, 10-min avg: Calm, gust: None
  • Barometer: 30.24 inRising 0.02  inHg/hr Rising Slowly
  • Visibility: 10 miles
  • Rain Today: 0.00 in
  •   

Regional Weather Roundup
for Boston, MA

        
000
ASUS41 KBOX 251910
RWRBOX

REGIONAL WEATHER ROUNDUP
NATIONAL WEATHER SERVICE BOSTON/NORTON MA
200 PM EST WED JAN 25 2023

NOTE:  "FAIR" INDICATES FEW OR NO CLOUDS BELOW 12,000 FEET WITH NO 
SIGNIFICANT WEATHER AND/OR OBSTRUCTIONS TO VISIBILITY.

MAZALL-252000-
EASTERN MASSACHUSETTS
  
CITY           SKY/WX    TMP DP  RH WIND       PRES   REMARKS
BOSTON         CLOUDY    36  31  82 SE3       30.29F                  
BEVERLY        CLOUDY    37  29  72 CALM      30.27F                  
LAWRENCE       FLURRIES  37  27  67 E5        30.29F                  
BEDFORD        CLOUDY    37  28  70 SE6       30.26F                  
NORWOOD        CLOUDY    39  27  62 CALM      30.28F                  
MARSHFIELD     CLOUDY    37  30  75 CALM      30.28S                  
PLYMOUTH       CLOUDY    39  27  62 S5        30.28S                  
TAUNTON          N/A    N/A N/A N/A MISG      30.27F                  
NEW BEDFORD    CLOUDY    40  25  55 SE7       30.27F                  
$$

MAZALL-252000-
CAPE COD AND THE ISLANDS
  
CITY           SKY/WX    TMP DP  RH WIND       PRES   REMARKS
FALMOUTH       MOSUNNY   37  27  65 S7        30.28                   
HYANNIS        CLOUDY    38  29  70 S7        30.29R                  
CHATHAM        CLOUDY    41  30  65 VRB3      30.30R                  
PROVINCETOWN   CLOUDY    39  31  72 SW6       30.30R                  
NANTUCKET      PTSUNNY   40  29  64 S5        30.30R                  
MARTHAS VNYRD  CLOUDY    41  24  51 SW3       30.29R                  
$$
 
MAZALL-252000-
CENTRAL AND WESTERN MASSACHUSETTS
  
CITY           SKY/WX    TMP DP  RH WIND       PRES   REMARKS
WORCESTER      CLOUDY    33  25  72 SE6       30.20F WCI  28          
FITCHBURG      CLOUDY    34  27  75 NE3       30.25F                  
ORANGE         CLOUDY    32  28  85 SE3       30.22F                  
SPRINGFIELD    CLOUDY    35  25  67 SE5       30.22S WCI  30          
WESTFIELD      PTSUNNY   34  27  75 CALM      30.22F                  
NORTH ADAMS    CLOUDY    32  25  75 E5        30.18F WCI  27          
PITTSFIELD     CLOUDY    30  25  81 CALM      30.12F                  
$$
 
RIZALL-252000-
RHODE ISLAND
  
CITY           SKY/WX    TMP DP  RH WIND       PRES   REMARKS
PROVIDENCE     CLOUDY    38  24  57 E7        30.27F                  
NEWPORT        PTSUNNY   38  25  59 S7        30.26F                  
BLOCK ISLAND   CLOUDY    38  25  59 SE9       30.26F WCI  31          
SMITHFIELD     PTSUNNY   36  25  64 E3        30.25F                  
WESTERLY       PTSUNNY   39  26  59 E7        30.26F                  
$$
 
CTZALL-252000-
CONNECTICUT
  
CITY           SKY/WX    TMP DP  RH WIND       PRES   REMARKS
BRADLEY INTL   CLOUDY    36  25  64 E3        30.23F                  
HARTFORD       PTSUNNY   38  25  59 CALM      30.24F                  
BRIDGEPORT     CLOUDY    39  30  70 E12       30.21F WCI  32          
DANBURY        CLOUDY    39  25  57 SE12      30.18F WCI  32          
GROTON         CLOUDY    41  27  57 E10       30.25F                  
NEW HAVEN      CLOUDY    41  30  65 E10       30.21F                  
CHESTER        FAIR      39  28  65 E6        30.21F                  
MERIDEN        CLOUDY    40  24  53 SE6       30.22F                  
WILLIMANTIC    CLOUDY    37  25  61 E5        30.24F                  
OXFORD         CLOUDY    36  26  67 SE9       30.19F WCI  29          
$$

MEZ002-015-021-024-NHZ003-005-008-011-012-014-VTZ005-008-252000-
NORTHERN NEW ENGLAND
  
CITY           SKY/WX    TMP DP  RH WIND       PRES   REMARKS
PORTLAND ME    CLOUDY    29  20  69 E7        30.32S WCI  22          
BANGOR ME      CLOUDY    24  10  55 NE5       30.34R WCI  18          
CONCORD NH     SNOW      30  27  88 VRB3      30.25F VSB 1/2          
MANCHESTER NH  LGT SNOW  34  27  75 E5        30.25F WCI  30          
NASHUA NH      LGT SNOW  34  34 100 SE3       30.27F FOG              
PORTSMOUTH NH  LGT SNOW  33  25  71 N7        30.29  WCI  27          
JAFFREY NH     LGT SNOW  32  27  81 CALM      30.19F                  
KEENE NH       CLOUDY    34  30  86 CALM      30.21F                  
BURLINGTON VT  LGT SNOW  27  18  69 CALM      30.19F                  
MT. WASHINGTON SNOW       9   9 100 SW30G39     N/A  VSB 1/16WCI -14  
$$

NYZ052-076-252000-
EASTERN NEW YORK
  
CITY           SKY/WX    TMP DP  RH WIND       PRES   REMARKS
ALBANY         FLURRIES  32  28  85 E8        30.16F WCI  25          
NEW YORK CITY  LGT SNOW  36  29  75 E13       30.15F WCI  27          
$$
 
ANZALL-252000-
MARINE OBSERVATIONS
  
STATION/POSITION TIME  TEMP    WIND        PRES    VSBY  WAVE
                       AIR SEA DIR/SP/G                  HT/PER
                 (UTC) (F)     (DEG/KT/KT) (MB)    (MI)  (FT/S)
BOSTON BUOY      1850      42              1026.1R         1/10
BUZZARDS BAY     1800   37     120/  3/  4 1025.8R
NANTUCKET SOUND  1850   39 42  220/  4/  4 1025.9R         1
MASS BAY-STELLWA 1704   38 42   50/  2/  4 1024.6F  1 7/8  1/11
ISLE OF SHOALS   1800   36      80/ 12/ 15 1025.0R
S OF BLOCK IS    1756      44                N/A           2/10
$$

......................KEY.........................
  SKY/WX - SKY CONDITION/PRESENT WEATHER
  TMP    - TEMPERATURE IN FAHRENHEIT
  DWPT   - DEWPOINT IN FAHRENHEIT
  RH     - RELATIVE HUMIDITY IN PERCENT
  WIND   - DIRECTION AND SPEED IN MPH
  PRES   - MEAN SEA LEVEL PRESSURE IN INCHES OF HG
  WCI    - WIND CHILL INDEX
  VSB    - VISIBILITY IN MILES
  HX     - HEAT INDEX
  TC     - TEMPERATURE IN CELSIUS
  VRB    - VARIABLE WIND DIRECTION
  N/A    - NOT AVAILABLE
  
      

Other recent Regional Weather Roundups

Sat Jan 28, 8:10pm EST

Sat Jan 28, 7:10pm EST

Sat Jan 28, 6:10pm EST

Sat Jan 28, 5:10pm EST

Sat Jan 28, 4:10pm EST

Sat Jan 28, 3:10pm EST

Sat Jan 28, 2:10pm EST

Sat Jan 28, 1:10pm EST

Sat Jan 28, 12:10pm EST

Sat Jan 28, 11:10am EST

Sat Jan 28, 10:10am EST

Sat Jan 28, 9:10am EST

Sat Jan 28, 8:10am EST

Sat Jan 28, 7:10am EST

Sat Jan 28, 6:10am EST

Sat Jan 28, 5:10am EST

Sat Jan 28, 4:10am EST

Sat Jan 28, 3:10am EST

Sat Jan 28, 2:10am EST

Sat Jan 28, 1:10am EST

Sat Jan 28, 12:10am EST

Fri Jan 27, 11:10pm EST

Fri Jan 27, 10:10pm EST

Fri Jan 27, 9:10pm EST

Fri Jan 27, 8:10pm EST

Fri Jan 27, 7:10pm EST

Fri Jan 27, 6:10pm EST

Fri Jan 27, 5:10pm EST

Fri Jan 27, 4:10pm EST

Fri Jan 27, 3:10pm EST

Fri Jan 27, 2:10pm EST

Fri Jan 27, 1:10pm EST

Fri Jan 27, 12:10pm EST

Fri Jan 27, 11:10am EST

Fri Jan 27, 10:10am EST

Fri Jan 27, 9:10am EST

Fri Jan 27, 8:10am EST

Fri Jan 27, 7:10am EST

Fri Jan 27, 6:10am EST

Fri Jan 27, 5:10am EST

Fri Jan 27, 4:10am EST

Fri Jan 27, 3:10am EST

Fri Jan 27, 2:10am EST

Fri Jan 27, 1:10am EST

Fri Jan 27, 12:10am EST

Thu Jan 26, 11:10pm EST

Thu Jan 26, 10:10pm EST

Thu Jan 26, 9:10pm EST

Thu Jan 26, 8:10pm EST

Thu Jan 26, 7:10pm EST

Thu Jan 26, 6:10pm EST

Thu Jan 26, 5:10pm EST

Thu Jan 26, 4:10pm EST

Thu Jan 26, 3:10pm EST

Thu Jan 26, 2:10pm EST

Thu Jan 26, 1:10pm EST

Thu Jan 26, 12:10pm EST

Thu Jan 26, 11:10am EST

Thu Jan 26, 10:10am EST

Thu Jan 26, 9:10am EST

Thu Jan 26, 8:10am EST

Thu Jan 26, 7:10am EST

Thu Jan 26, 6:10am EST

Thu Jan 26, 5:10am EST

Thu Jan 26, 4:10am EST

Thu Jan 26, 3:10am EST

Thu Jan 26, 2:10am EST

Thu Jan 26, 1:10am EST

Thu Jan 26, 12:10am EST

Wed Jan 25, 11:10pm EST

Wed Jan 25, 10:10pm EST

Wed Jan 25, 9:10pm EST

Wed Jan 25, 8:10pm EST

Wed Jan 25, 7:10pm EST

Wed Jan 25, 6:10pm EST

Wed Jan 25, 5:10pm EST

Wed Jan 25, 4:10pm EST

Wed Jan 25, 3:10pm EST

Wed Jan 25, 1:10pm EST

Wed Jan 25, 12:10pm EST

Wed Jan 25, 11:10am EST

Wed Jan 25, 10:10am EST

Wed Jan 25, 9:10am EST

Wed Jan 25, 8:10am EST

Wed Jan 25, 7:10am EST

Wed Jan 25, 6:10am EST

Wed Jan 25, 5:10am EST

Wed Jan 25, 4:10am EST

Wed Jan 25, 3:10am EST

Wed Jan 25, 2:10am EST

Wed Jan 25, 1:10am EST

Wed Jan 25, 12:10am EST

Tue Jan 24, 11:10pm EST

Tue Jan 24, 10:10pm EST

Tue Jan 24, 9:10pm EST

Tue Jan 24, 8:10pm EST

Tue Jan 24, 7:10pm EST

Tue Jan 24, 6:10pm EST

Tue Jan 24, 5:10pm EST

Tue Jan 24, 4:10pm EST

Tue Jan 24, 3:10pm EST

Tue Jan 24, 2:10pm EST

Tue Jan 24, 1:10pm EST

Tue Jan 24, 12:10pm EST

Tue Jan 24, 11:10am EST

Tue Jan 24, 10:10am EST

Tue Jan 24, 9:10am EST

Tue Jan 24, 8:10am EST

Tue Jan 24, 7:10am EST

Tue Jan 24, 6:10am EST

Tue Jan 24, 5:10am EST

Tue Jan 24, 4:10am EST

Tue Jan 24, 3:10am EST

Tue Jan 24, 2:10am EST

Tue Jan 24, 1:10am EST

Tue Jan 24, 12:10am EST

Mon Jan 23, 11:10pm EST

Mon Jan 23, 10:10pm EST

Mon Jan 23, 9:10pm EST

Mon Jan 23, 8:10pm EST

Mon Jan 23, 7:10pm EST

Mon Jan 23, 6:10pm EST

Mon Jan 23, 5:10pm EST

Mon Jan 23, 4:10pm EST

Mon Jan 23, 3:10pm EST

Mon Jan 23, 2:10pm EST

Mon Jan 23, 1:10pm EST

Mon Jan 23, 12:10pm EST

Mon Jan 23, 11:10am EST

Mon Jan 23, 10:10am EST

Mon Jan 23, 9:10am EST

Mon Jan 23, 8:10am EST

Mon Jan 23, 7:10am EST

Mon Jan 23, 6:10am EST

Mon Jan 23, 5:10am EST

Mon Jan 23, 4:10am EST

Mon Jan 23, 3:10am EST

Mon Jan 23, 2:10am EST

Mon Jan 23, 1:10am EST

Mon Jan 23, 12:10am EST

Sun Jan 22, 11:10pm EST

Sun Jan 22, 10:10pm EST

Sun Jan 22, 9:10pm EST

Sun Jan 22, 8:10pm EST

Sun Jan 22, 7:10pm EST

Sun Jan 22, 6:10pm EST

Sun Jan 22, 5:10pm EST

Sun Jan 22, 4:10pm EST

Sun Jan 22, 3:10pm EST

Sun Jan 22, 2:10pm EST

Sun Jan 22, 1:10pm EST

Sun Jan 22, 12:10pm EST

Sun Jan 22, 11:10am EST

Sun Jan 22, 10:10am EST

Sun Jan 22, 9:10am EST

Sun Jan 22, 8:10am EST

Sun Jan 22, 7:10am EST

Sun Jan 22, 6:10am EST

Sun Jan 22, 5:10am EST

Sun Jan 22, 4:10am EST

Sun Jan 22, 3:10am EST

Sun Jan 22, 2:10am EST

Sun Jan 22, 1:10am EST

Sun Jan 22, 12:10am EST

Sat Jan 21, 11:10pm EST

Sat Jan 21, 10:10pm EST

Sat Jan 21, 9:10pm EST